Location: Wald
(31.7579°N, 86.6655°W)
Time: 00:51:24
(UTC+00:00)

Cosmos 1536 - Pass Details

Date: 14 July 2020
Orbit: 539 x 560 km, 82.5° (Epoch: 12 August)

Event Time Altitude Azimuth Distance (km) Brightness Sun altitude
Exits shadow 08:25:41 30° 327° (NNW) 1,010 4.2 -25.3°
Drops below altitude 10° 08:28:07 10° 351° (N) 1,844 6.0 -25.0°
Sets 08:30:23 0° 358° (N) 2,740 7.1 -24.6°
